Weather History for Kingman, AZ

Change the Weather History Date:

Monday, March 4, 2013

  Actual Average Record
Temperature  
Mean Temperature 52 °F 49 °F  
Max Temperature 67 °F 63 °F 87 °F (1910)
Min Temperature 37 °F 36 °F 11 °F (1976)
Degree Days  
Heating Degree Days 13 16  
Month to date heating degree days 42 64  
Since 1 July heating degree days 2509 2477  
Cooling Degree Days 0 0  
Month to date cooling degree days 0 0  
Year to date cooling degree days 0 0  
Growing Degree Days 2 (Base 50)    
Moisture  
Dew Point 31 °F    
Average Humidity 47    
Maximum Humidity 70    
Minimum Humidity 24    
Precipitation  
Precipitation 0.00 in 0.03 in 0.85 in (1912)
Month to date precipitation 0.00 0.15  
Year to date precipitation 0.99 2.31  
Sea Level Pressure  
Sea Level Pressure 29.87 in    
Wind  
Wind Speed 8 mph (NW)    
Max Wind Speed 15 mph    
Max Gust Speed 21 mph    
Visibility 10 miles    
Events      
T = Trace of Precipitation, MM = Missing Value Source: NWS Daily Summary

Daily Weather History Graph

Daily Weather History Graph

Search for Another Location

Airport:

Trip Planner

Search our weather history database for the weather conditions in past years. The results will help you decide how hot, cold, wet, or windy it might be!

Date:

Astronomy

Mar. 04, 2013 Rise Set
Actual Time 7:00 AM MST 6:34 PM MST
Civil Twilight 6:35 AM MST 6:59 PM MST
Nautical Twilight 6:06 AM MST 7:29 PM MST
Astronomical Twilight 5:36 AM MST 7:58 PM MST
Moon 1:05 AM MST (3/4) 11:28 AM MST (3/4)
Length of Visible Light 12h 24m
Length of Day
11h 33m
Waning Gibbous, 51% of the Moon is Illuminated
Mar 4
Waning Gibbous
Mar 4
Last Quarter
Mar 11
New
Mar 19
First Quarter
Mar 27
Full

Hourly Weather History & Observations

Time (MST) Temp. Windchill Dew Point Humidity Pressure Visibility Wind Dir Wind Speed Gust Speed Precip Events Conditions
12:51 AM 53.1 °F - 24.1 °F 32% 29.74 in 10.0 mi SSW 9.2 mph - N/A   Clear
1:51 AM 50.0 °F - 26.1 °F 39% 29.76 in 10.0 mi SW 4.6 mph - N/A   Mostly Cloudy
2:51 AM 52.0 °F - 30.9 °F 45% 29.75 in 10.0 mi SW 9.2 mph - N/A   Mostly Cloudy
3:51 AM 51.1 °F - 30.0 °F 44% 29.75 in 10.0 mi Calm Calm - N/A   Overcast
4:51 AM 46.0 °F 41.9 °F 30.0 °F 54% 29.77 in 10.0 mi SW 8.1 mph - N/A   Clear
5:51 AM 44.1 °F 38.1 °F 30.9 °F 60% 29.78 in 10.0 mi South 11.5 mph - N/A   Clear
6:51 AM 39.0 °F - 30.0 °F 70% 29.82 in 10.0 mi Calm Calm - N/A   Clear
7:51 AM 46.9 °F - 33.1 °F 59% 29.83 in 10.0 mi SSW 5.8 mph - N/A   Mostly Cloudy
8:51 AM 53.1 °F - 33.1 °F 47% 29.84 in 10.0 mi Calm Calm - N/A   Partly Cloudy
9:51 AM 57.0 °F - 35.1 °F 44% 29.86 in 10.0 mi Variable 4.6 mph - N/A   Partly Cloudy
10:51 AM 59.0 °F - 37.0 °F 44% 29.87 in 10.0 mi North 10.4 mph 19.6 mph N/A   Partly Cloudy
11:51 AM 62.1 °F - 36.0 °F 38% 29.87 in 10.0 mi North 13.8 mph - N/A   Clear
12:51 PM 64.0 °F - 36.0 °F 35% 29.87 in 10.0 mi North 11.5 mph 20.7 mph N/A   Partly Cloudy
1:51 PM 64.0 °F - 35.1 °F 34% 29.86 in 10.0 mi NNE 10.4 mph 16.1 mph N/A   Clear
2:51 PM 64.9 °F - 34.0 °F 32% 29.85 in 10.0 mi NW 8.1 mph - N/A   Clear
3:51 PM 66.0 °F - 32.0 °F 28% 29.87 in 10.0 mi NNW 9.2 mph - N/A   Clear
4:51 PM 66.0 °F - 30.9 °F 27% 29.88 in 10.0 mi North 15.0 mph 20.7 mph N/A   Clear
5:51 PM 63.0 °F - 28.0 °F 27% 29.91 in 10.0 mi NNW 15.0 mph - N/A   Clear
6:51 PM 57.0 °F - 28.9 °F 34% 29.95 in 10.0 mi North 6.9 mph - N/A   Clear
7:51 PM 52.0 °F - 30.0 °F 43% 29.98 in 10.0 mi ESE 3.5 mph - N/A   Clear
8:51 PM 46.9 °F - 30.0 °F 52% 30.00 in 10.0 mi East 5.8 mph - N/A   Clear
9:51 PM 45.0 °F 40.6 °F 30.0 °F 56% 30.01 in 10.0 mi SE 8.1 mph - N/A   Clear
10:51 PM 44.1 °F 39.0 °F 28.9 °F 55% 30.01 in 10.0 mi ESE 9.2 mph - N/A   Clear